Location: Buch
(49.7331°N, 12.1098°E)
Time: 04:05:58
(UTC+00:00)

BREEZE-M R/B - Pass Details

Date: 12 May 2021
Orbit: 311 x 4501 km, 49.7° (Epoch: 23 June)

Event Time Altitude Azimuth Distance (km) Brightness Sun altitude
Rises 19:43:23 0° 250° (WSW) 2,334 6.4 -8.3°
Reaches altitude 10° 19:45:36 10° 246° (WSW) 1,295 5.1 -8.6°
Maximum altitude 19:48:09 61° 165° (SSE) 361 1.6 -8.9°
Drops below altitude 10° 19:50:43 - 83° (E) 1,297 4.4 -9.2°
Enters shadow 19:51:40 - 81° (E) 1,750 5.0 -9.3°
